MDT,Max TemperatureF,Mean TemperatureF,Min TemperatureF,Max Dew PointF,MeanDew PointF,Min DewpointF,Max Humidity, Mean Humidity, Min Humidity, Max Sea Level PressureIn, Mean Sea Level PressureIn, Min Sea Level PressureIn, Max VisibilityMiles, Mean VisibilityMiles, Min VisibilityMiles, Max Wind SpeedMPH, Mean Wind SpeedMPH, Max Gust SpeedMPH,PrecipitationIn, CloudCover, Events, WindDirDegrees
2012-10-1,59,52,44,34,32,27,66,47,29,30.52,30.42,30.25,10.0,10.0,10.0,26,16,26,0.00,1,,187
2012-10-2,71,62,53,28,17,3,38,19,7,30.24,30.12,30.03,10.0,10.0,10.0,29,10,44,0.00,0,,208
2012-10-3,59,42,26,32,25,14,100,70,17,30.41,30.17,30.00,10.0,8.8,0.2,59,31,64,0.00,5,Snow,302
2012-10-4,37,30,24,28,23,19,100,77,48,30.41,30.33,30.27,10.0,9.3,0.2,25,13,26,0.00,6,Snow,79
2012-10-5,30,26,23,28,26,21,100,96,93,30.33,30.30,30.28,,,,36,16,40,0.00,8,,319
2012-10-6,32,26,19,23,20,18,100,77,64,30.38,30.32,30.26,10.0,10.0,10.0,34,18,17,0.00,5,,252
2012-10-7,42,34,26,23,18,12,74,53,31,30.27,30.19,30.11,10.0,10.0,10.0,17,9,20,0.00,1,,180
2012-10-8,50,42,33,32,19,14,93,39,29,30.12,30.05,29.99,10.0,10.0,10.0,26,7,,0.00,0,,3
2012-10-9,35,32,30,32,27,21,100,83,56,30.25,30.18,30.08,10.0,6.0,0.2,23,16,28,0.00,5,Fog-Snow,328
2012-10-10,55,44,32,28,23,16,75,49,22,30.24,30.15,30.09,10.0,10.0,10.0,22,11,21,0.00,0,,151
2012-10-11,48,40,32,34,31,23,100,73,43,30.26,30.21,30.13,10.0,9.7,2.5,22,11,24,0.00,3,,353
2012-10-12,57,46,35,39,33,28,87,61,33,30.18,30.08,30.00,10.0,10.0,10.0,26,17,30,0.00,0,,144
2012-10-13,53,48,42,37,29,19,71,49,26,30.33,30.14,30.00,10.0,10.0,10.0,31,16,33,0.00,3,,319
2012-10-14,55,48,41,32,27,21,66,46,26,30.39,30.32,30.25,10.0,10.0,10.0,17,9,20,0.00,0,,128
2012-10-15,59,52,44,32,28,21,57,41,29,30.24,30.13,30.05,10.0,10.0,10.0,39,14,50,0.00,2,,204
2012-10-16,57,45,33,37,33,21,93,60,41,30.07,29.84,29.67,10.0,9.9,1.8,43,20,61,0.00,3,Rain,209
2012-10-17,39,34,28,21,10,3,64,41,22,30.17,30.01,29.86,10.0,10.0,10.0,38,19,48,0.00,0,,305
2012-10-18,42,34,26,18,13,12,59,45,29,30.30,30.25,30.18,10.0,10.0,10.0,32,19,,0.00,0,,277
2012-10-19,53,44,35,30,19,12,53,35,22,30.24,30.08,29.96,10.0,10.0,10.0,37,12,48,0.00,1,,181
2012-10-20,59,50,42,30,26,21,61,40,25,29.97,29.88,29.82,10.0,10.0,10.0,43,20,56,0.00,1,,199
2012-10-21,46,40,33,34,32,23,100,73,49,29.98,29.94,29.87,10.0,9.9,2.0,20,12,,0.00,5,Rain,107
2012-10-22,46,40,33,45,38,34,100,90,70,29.95,29.84,29.72,10.0,6.9,0.2,31,16,40,0.00,7,Fog-Rain,129
2012-10-23,41,36,30,37,27,18,100,74,45,29.97,29.86,29.74,10.0,7.9,0.2,25,13,31,0.00,7,Fog-Rain-Snow,173
2012-10-24,32,28,23,27,20,7,100,73,35,30.12,30.02,29.95,10.0,8.5,0.2,22,11,24,0.00,8,Fog-Snow,359
2012-10-25,26,22,19,23,21,18,100,94,80,30.33,30.17,30.12,10.0,5.4,0.2,25,11,,0.00,8,Fog-Snow,105
2012-10-26,26,22,17,23,19,14,100,92,59,30.37,30.28,30.12,,,,20,11,25,0.00,7,,169
2012-10-27,35,28,21,23,20,12,93,68,55,30.14,30.10,30.07,10.0,10.0,10.0,20,9,29,0.00,1,,202
2012-10-28,50,39,28,32,26,21,80,61,43,30.16,30.09,30.06,10.0,10.0,10.0,18,12,32,0.00,2,,181
2012-10-29,55,48,42,36,32,21,71,55,34,30.25,30.18,30.12,10.0,10.0,10.0,36,24,47,0.00,2,,212
2012-10-30,53,48,42,28,24,19,53,39,28,30.29,30.25,30.22,10.0,10.0,10.0,25,16,38,0.00,0,,207
2012-10-31,55,50,44,27,23,21,49,35,28,30.31,30.26,30.20,10.0,10.0,10.0,15,10,18,0.00,0,,185